Powrót do katalogu

DELTA 1 DEB

AktywnyLEO
NORAD 10227·DEBRIS·🇺🇸 United States

Wystrzelony Jul 14, 1977 z Cape Canaveral Space Force Station

Loading…

Następne Przeloty (najbliższe 24 godziny)

TLE

ŚwieżeSource: Space-Track

Epoka: Sep 14, 2026, 05:50 UTC

1 10227U 77065BE  26257.24315349  .00001097  00000-0  33099-3 0  9994
2 10227  28.9538 224.2604 0671618 263.9304  88.4379 13.53365399386750

Śledź DELTA 1 DEB w czasie rzeczywistym z AllMySat

Download on the App Store